Weather History for Driggs, ID

Change the Weather History Date:

Wednesday, February 22, 2012

  Actual Average (KRXE) Record (KRXE)
Temperature  
Mean Temperature 32 °F 24 °F  
Max Temperature 37 °F 35 °F 52 °F (2007)
Min Temperature 23 °F 14 °F -9 °F (2010)
Degree Days  
Heating Degree Days 34 41  
Month to date heating degree days 960  
Since 1 July heating degree days 5737  
Cooling Degree Days 0 0  
Month to date cooling degree days 0  
Year to date cooling degree days 0  
Moisture  
Dew Point 28 °F    
Average Humidity 78    
Maximum Humidity 89    
Minimum Humidity 49    
Precipitation  
Precipitation 0.07 in 0.03 in 0.15 in (1985)
Month to date precipitation 0.65  
Year to date precipitation 1.39  
Sea Level Pressure  
Sea Level Pressure 29.75 in    
Wind  
Wind Speed 22 mph (WSW)    
Max Wind Speed 46 mph    
Max Gust Speed 55 mph    
Visibility 7 miles    
Events Fog , Snow    
T = Trace of Precipitation, MM = Missing Value Source: NWS Daily Summary

Daily Weather History Graph

Daily Weather History Graph

Search for Another Location

Airport:

Trip Planner

Search our weather history database for the weather conditions in past years. The results will help you decide how hot, cold, wet, or windy it might be!

Date:

Astronomy

Feb. 22, 2012 Rise Set
Actual Time 7:13 AM MST 6:03 PM MST
Civil Twilight 6:44 AM MST 6:32 PM MST
Nautical Twilight 6:10 AM MST 7:05 PM MST
Astronomical Twilight 5:37 AM MST 7:39 PM MST
Moon 7:09 AM MST (2/22) 7:17 PM MST (2/22)
Length of Visible Light 11h 48m
Length of Day
10h 50m
New Moon, 1% of the Moon is Illuminated
Feb 22
New Moon
Feb 29
First Quarter
Mar 8
Full
Mar 14
Last Quarter
Mar 22
New

Hourly Weather History & Observations

Time (MST) Temp. Windchill Dew Point Humidity Pressure Visibility Wind Dir Wind Speed Gust Speed Precip Events Conditions
12:31 AM 35.6 °F 24.5 °F 32.0 °F 87% 29.92 in 9.0 mi SW 20.7 mph - 0.02 in   Overcast
12:56 AM 36.0 °F 26.0 °F 32.0 °F 86% 29.89 in 9.0 mi SSW 17.3 mph - 0.04 in   Overcast
1:33 AM 35.6 °F 25.2 °F 32.0 °F 87% 29.93 in 8.0 mi SSW 18.4 mph - 0.01 in   Overcast
1:56 AM 36.0 °F 28.0 °F 32.0 °F 86% 29.89 in 8.0 mi SSW 11.5 mph - 0.02 in   Overcast
2:45 AM 35.6 °F 25.2 °F 30.2 °F 81% 29.93 in 8.0 mi SSW 18.4 mph - N/A   Overcast
2:56 AM 36.0 °F 26.3 °F 31.1 °F 82% 29.88 in 9.0 mi SSW 16.1 mph - N/A   Overcast
3:26 AM 35.6 °F 25.9 °F 30.2 °F 81% 29.92 in 8.0 mi SSW 16.1 mph - N/A   Overcast
3:36 AM 35.6 °F 25.2 °F 30.2 °F 81% 29.91 in 8.0 mi SSW 18.4 mph - N/A   Overcast
3:56 AM 34.9 °F 24.6 °F 31.1 °F 86% 29.87 in 8.0 mi SSW 17.3 mph - N/A   Overcast
4:15 AM 35.6 °F 24.8 °F 30.2 °F 81% 29.89 in 8.0 mi SSW 19.6 mph - N/A   Overcast
5:18 AM 35.6 °F 24.8 °F 30.2 °F 81% 29.91 in 8.0 mi SSW 19.6 mph - N/A   Overcast
5:56 AM 34.9 °F 25.3 °F 32.0 °F 89% 29.87 in 8.0 mi South 15.0 mph - N/A   Overcast
6:36 AM 35.6 °F 25.9 °F 30.2 °F 81% 29.88 in 8.0 mi South 16.1 mph - N/A   Overcast
6:56 AM 34.9 °F 27.1 °F 31.1 °F 86% 29.84 in 9.0 mi SSW 10.4 mph - N/A   Overcast
7:06 AM 35.6 °F 26.6 °F 30.2 °F 81% 29.87 in 8.0 mi SW 13.8 mph - N/A   Overcast
7:56 AM 34.9 °F 23.6 °F 31.1 °F 86% 29.83 in 7.0 mi SW 20.7 mph - N/A   Overcast
8:17 AM 35.6 °F 25.9 °F 30.2 °F 81% 29.87 in 7.0 mi SSW 16.1 mph - N/A   Overcast
8:56 AM 34.9 °F 25.3 °F 31.1 °F 86% 29.81 in 7.0 mi SSW 15.0 mph - N/A   Overcast
9:56 AM 36.0 °F 26.3 °F 30.0 °F 79% 29.78 in 7.0 mi SW 16.1 mph - N/A   Overcast
10:56 AM 34.9 °F 21.5 °F 30.0 °F 82% 29.76 in 7.0 mi SW 29.9 mph 43.7 mph N/A   Overcast
11:56 AM 36.0 °F 22.4 °F 30.0 °F 79% 29.72 in 6.0 mi SW 33.4 mph 43.7 mph N/A   Haze
12:56 PM 36.9 °F 22.6 °F 30.0 °F 76% 29.67 in 9.0 mi WSW 40.3 mph 48.3 mph N/A   Mostly Cloudy
1:07 PM 37.4 °F 25.4 °F 30.2 °F 75% 29.73 in 8.0 mi SW 27.6 mph - N/A   Mostly Cloudy
1:56 PM 37.9 °F 23.3 °F 30.0 °F 73% 29.62 in 7.0 mi WSW 46.0 mph 55.2 mph N/A   Scattered Clouds
2:56 PM 37.9 °F 24.1 °F 29.1 °F 71% 29.59 in 10.0 mi WSW 40.3 mph 49.5 mph 0.01 in   Clear
3:56 PM 37.9 °F 24.4 °F 30.0 °F 73% 29.57 in 7.0 mi WSW 38.0 mph 54.1 mph N/A   Scattered Clouds
4:56 PM 36.9 °F 23.2 °F 30.0 °F 76% 29.55 in 8.0 mi WSW 35.7 mph 46.0 mph N/A   Partly Cloudy
5:56 PM 36.9 °F 23.6 °F 29.1 °F 74% 29.53 in 8.0 mi WSW 33.4 mph 44.9 mph 0.00 in   Scattered Clouds
6:20 PM 37.4 °F 25.4 °F 30.2 °F 75% 29.60 in 7.0 mi WSW 27.6 mph - 0.00 in   Mostly Cloudy
6:31 PM 37.4 °F 25.2 °F 30.2 °F 75% 29.60 in 7.0 mi WSW 28.8 mph - 0.00 in   Overcast
6:56 PM 36.9 °F 25.4 °F 28.0 °F 70% 29.53 in 9.0 mi West 24.2 mph - 0.00 in Snow Light Snow
7:56 PM 36.0 °F 23.2 °F 28.0 °F 73% 29.55 in 10.0 mi West 28.8 mph - 0.00 in   Mostly Cloudy
8:05 PM 35.6 °F 24.0 °F 28.4 °F 75% 29.62 in 5.0 mi West 23.0 mph - 0.00 in Snow Light Snow
8:20 PM 33.8 °F 20.1 °F 28.4 °F 81% 29.64 in 4.0 mi WNW 29.9 mph - 0.00 in Snow Light Snow
8:24 PM 33.8 °F 20.3 °F 28.4 °F 81% 29.64 in 1.8 mi WNW 28.8 mph - 0.00 in Snow Light Snow
8:26 PM 33.8 °F 20.1 °F 28.4 °F 81% 29.65 in 1.0 mi NW 29.9 mph - 0.00 in Snow Light Snow
8:28 PM 32.0 °F 17.9 °F 28.4 °F 87% 29.65 in 0.8 mi NW 28.8 mph - 0.00 in Snow Light Snow
8:31 PM 32.0 °F 16.7 °F 28.4 °F 87% 29.65 in 0.5 mi WNW 34.5 mph - 0.00 in Fog , Snow Light Snow
8:56 PM 30.0 °F 14.7 °F 22.1 °F 72% 29.63 in 1.8 mi NW 31.1 mph - 0.00 in   Mostly Cloudy
9:03 PM 30.2 °F 16.5 °F 21.2 °F 69% 29.69 in 3.0 mi NW 24.2 mph - 0.00 in Snow Light Snow
9:15 PM 30.2 °F 15.7 °F 17.6 °F 60% 29.70 in 10.0 mi NNW 27.6 mph - 0.00 in   Overcast
9:56 PM 28.0 °F 13.3 °F 14.0 °F 56% 29.71 in 9.0 mi NNW 25.3 mph 32.2 mph 0.00 in Snow Light Snow
10:56 PM 26.1 °F 12.7 °F 9.1 °F 49% 29.75 in 9.0 mi NNW 18.4 mph - 0.00 in   Mostly Cloudy
11:56 PM 23.0 °F 11.7 °F 10.0 °F 58% 29.78 in 9.0 mi NW 11.5 mph - N/A   Partly Cloudy